LRTC Weather Reports


Display with metric or nautical units.
time (UTC)temp
F
wind
direction
speed
MPH
gust
MPH
rain 1hr
in
rain 24hr
in
rain mn
in
humidity
%
barometer
mb
20260507024841 43 2.0 0.0 0.00 0.00 0.00 100 1017.0
20260507023344 43 2.0 0.0 0.00 0.00 0.00 100 1017.0
20260507021845 43 220 2.0 0.0 0.00 0.00 0.00 100 1017.0
20260507020344 43 220 2.0 0.0 0.00 0.00 0.00 100 1017.0
20260507014844 41 160 3.0 0.0 0.00 0.00 0.00 100 1017.0
20260507013344 41 160 3.0 0.0 0.00 0.00 0.00 100 1017.0
20260507011844 39 2.0 0.0 0.00 0.00 0.00 100 1017.0
20260507010345 39 2.0 0.0 0.00 0.00 0.00 100 1017.0
20260507004844 43 2.0 0.0 0.00 0.00 0.00 100 1017.0
20260507003345 43 2.0 0.0 0.00 0.00 0.00 100 1017.0
20260507001844 43 2.0 0.0 0.00 0.00 0.00 100 1017.0
20260507000344 43 2.0 0.0 0.00 0.00 0.00 100 1017.0
20260506234844 45 2.0 0.0 0.00 0.00 0.00 100 1017.0
20260506233344 45 2.0 0.0 0.00 0.00 0.00 100 1017.0
20260506230344 45 120 3.0 0.0 0.00 0.00 0.00 100 1017.0
20260506224841 43 110 1.0 0.0 0.00 0.00 0.00 100 1017.0
20260506223344 43 110 1.0 0.0 0.00 0.00 0.00 100 1017.0
20260506221844 46 200 3.0 0.0 0.00 0.00 0.00 100 1017.0
20260506220343 46 200 3.0 0.0 0.00 0.00 0.00 100 1017.0
20260506213344 46 220 3.0 0.0 0.00 0.00 0.00 100 1017.0
20260506210344 46 150 6.0 0.0 0.00 0.00 0.00 100 1017.0
20260506204845 48 130 6.0 0.0 0.00 0.00 0.00 94 1017.0
20260506203344 48 130 6.0 0.0 0.00 0.00 0.00 94 1017.0
20260506200344 48 140 6.0 0.0 0.00 0.00 0.00 100 1017.0
20260506193408 48 130 6.0 0.0 0.00 0.00 0.00 100 1017.0
20260506191845 48 150 8.0 0.0 0.00 0.00 0.00 100 1017.0
20260506190344 48 150 8.0 0.0 0.00 0.00 0.00 100 1017.0
20260506183344 50 140 6.0 0.0 0.00 0.00 0.00 94 1017.0
20260506181844 52 140 7.0 0.0 0.00 0.00 0.00 88 1016.0
20260506180345 52 140 7.0 0.0 0.00 0.00 0.00 88 1016.0
20260506174845 52 130 7.0 0.0 0.00 0.00 0.00 88 1016.0
20260506173344 52 130 7.0 0.0 0.00 0.00 0.00 88 1016.0
20260506171845 57 150 8.0 0.0 0.00 0.00 0.00 77 1016.0
20260506170344 57 150 8.0 0.0 0.00 0.00 0.00 77 1016.0
20260506164844 61 140 7.0 0.0 0.00 0.00 0.00 68 1016.0
20260506163344 61 140 7.0 0.0 0.00 0.00 0.00 68 1016.0
20260506161845 63 140 9.0 0.0 0.00 0.00 0.00 59 1016.0
20260506160344 63 140 9.0 0.0 0.00 0.00 0.00 59 1016.0
20260506154845 64 140 10.0 0.0 0.00 0.00 0.00 52 1016.0
20260506153344 64 140 10.0 0.0 0.00 0.00 0.00 52 1016.0
20260506151844 66 150 11.0 0.0 0.00 0.00 0.00 49 1016.0
20260506150350 66 150 11.0 0.0 0.00 0.00 0.00 49 1016.0
20260506144844 66 160 14.0 0.0 0.00 0.00 0.00 49 1016.0
20260506143356 66 160 14.0 0.0 0.00 0.00 0.00 49 1016.0
20260506141844 66 150 13.0 0.0 0.00 0.00 0.00 52 1016.0
20260506140505 66 150 13.0 0.0 0.00 0.00 0.00 52 1016.0
20260506134909 68 150 14.0 0.0 0.00 0.00 0.00 46 1016.0
20260506133344 68 150 14.0 0.0 0.00 0.00 0.00 46 1016.0
20260506131844 68 150 13.0 0.0 0.00 0.00 0.00 43 1016.0
20260506130353 68 150 13.0 0.0 0.00 0.00 0.00 43 1016.0
20260506124845 68 140 13.0 0.0 0.00 0.00 0.00 40 1016.0
20260506123344 68 140 13.0 0.0 0.00 0.00 0.00 40 1016.0
20260506121845 68 150 13.0 0.0 0.00 0.00 0.00 43 1016.0
20260506120344 68 150 13.0 0.0 0.00 0.00 0.00 43 1016.0
20260506114844 68 140 13.0 0.0 0.00 0.00 0.00 46 1016.0
20260506113345 68 140 13.0 0.0 0.00 0.00 0.00 46 1016.0
20260506111844 68 160 13.0 0.0 0.00 0.00 0.00 46 1017.0
20260506110344 68 160 13.0 0.0 0.00 0.00 0.00 46 1017.0
20260506104844 68 160 13.0 0.0 0.00 0.00 0.00 46 1017.0
20260506103344 68 160 13.0 0.0 0.00 0.00 0.00 46 1017.0
20260506101845 68 150 11.0 0.0 0.00 0.00 0.00 46 1016.0
20260506100344 68 150 11.0 0.0 0.00 0.00 0.00 46 1016.0
20260506094844 68 150 11.0 0.0 0.00 0.00 0.00 43 1017.0
20260506093344 68 150 11.0 0.0 0.00 0.00 0.00 43 1017.0
20260506091844 66 140 14.0 0.0 0.00 0.00 0.00 46 1016.0
20260506090344 66 140 14.0 0.0 0.00 0.00 0.00 46 1016.0
20260506084844 68 140 11.0 0.0 0.00 0.00 0.00 43 1016.0
20260506083344 68 140 11.0 0.0 0.00 0.00 0.00 43 1016.0
20260506081841 66 130 10.0 0.0 0.00 0.00 0.00 52 1016.0
20260506080344 66 130 10.0 0.0 0.00 0.00 0.00 52 1016.0
20260506073344 66 160 7.0 0.0 0.00 0.00 0.00 46 1016.0
20260506071844 64 150 6.0 0.0 0.00 0.00 0.00 43 1016.0
20260506070344 64 150 6.0 0.0 0.00 0.00 0.00 43 1016.0
20260506061845 55 2.0 0.0 0.00 0.00 0.00 67 1016.0
20260506060346 55 2.0 0.0 0.00 0.00 0.00 67 1016.0
20260506050358 48 50 2.0 0.0 0.00 0.00 0.00 76 1016.0
20260506044900 48 1.0 0.0 0.00 0.00 0.00 71 1015.0
20260506043348 48 1.0 0.0 0.00 0.00 0.00 71 1015.0
20260506041845 43 10 3.0 0.0 0.00 0.00 0.00 87 1015.0
20260506040344 43 10 3.0 0.0 0.00 0.00 0.00 87 1015.0
20260506034845 41 1.0 0.0 0.00 0.00 0.00 81 1015.0
20260506033344 41 1.0 0.0 0.00 0.00 0.00 81 1015.0
20260506031844 41 240 5.0 0.0 0.00 0.00 0.00 81 1015.0
20260506030344 41 240 5.0 0.0 0.00 0.00 0.00 81 1015.0